| time (UTC) | temp C | wind direction | speed KPH | gust KPH | rain 1hr cm | rain 24hr cm | rain mn cm | humidity % | barometer mb |
| 20260905191202 | 19 | 195 | 0.0 | 0.0 | 0.00 | 0.00 | 0.00 | 96 | 1015.3 |
| 20260905190203 | 19 | 195 | 0.0 | 0.0 | 0.00 | 0.00 | 0.00 | 94 | 1016.1 |
| 20260905185701 | 19 | 195 | 0.0 | 1.6 | 0.00 | 0.00 | 0.00 | 94 | 1016.1 |
| 20260905185202 | 19 | 195 | 1.6 | 1.6 | 0.00 | 0.00 | 0.00 | 93 | 1016.1 |
| 20260905184701 | 19 | 90 | 0.0 | 1.6 | 0.00 | 0.00 | 0.00 | 92 | 1016.1 |
| 20260905184202 | 19 | 81 | 0.0 | 0.0 | 0.00 | 0.00 | 0.00 | 93 | 1016.4 |
| 20260905183701 | 20 | 15 | 0.0 | 0.0 | 0.00 | 0.00 | 0.00 | 92 | 1016.1 |
| 20260905183202 | 20 | 15 | 0.0 | 1.6 | 0.00 | 0.00 | 0.00 | 92 | 1016.1 |
| 20260905182700 | 20 | 15 | 0.0 | 3.2 | 0.00 | 0.00 | 0.00 | 92 | 1016.1 |
| 20260905182201 | 20 | 195 | 0.0 | 3.2 | 0.00 | 0.00 | 0.00 | 90 | 1015.6 |
| 20260905181700 | 20 | 0 | 0.0 | 4.8 | 0.00 | 0.00 | 0.00 | 90 | 1015.3 |
| 20260905181200 | 20 | 334 | 0.0 | 6.4 | 0.00 | 0.00 | 0.00 | 90 | 1015.3 |
| 20260905180659 | 20 | 265 | 3.2 | 4.8 | 0.00 | 0.00 | 0.00 | 89 | 1015.3 |
| 20260905180200 | 20 | 270 | 0.0 | 4.8 | 0.00 | 0.00 | 0.00 | 88 | 1014.9 |
| 20260905175658 | 20 | 254 | 1.6 | 3.2 | 0.00 | 0.00 | 0.00 | 88 | 1015.3 |
| 20260905175159 | 20 | 277 | 0.0 | 4.8 | 0.00 | 0.00 | 0.00 | 87 | 1014.9 |
| 20260905174657 | 21 | 338 | 4.8 | 6.4 | 0.00 | 0.00 | 0.00 | 86 | 1014.9 |
| 20260905174159 | 21 | 334 | 0.0 | 6.4 | 0.00 | 0.00 | 0.00 | 86 | 1014.9 |
| 20260905173657 | 20 | 301 | 3.2 | 6.4 | 0.00 | 0.00 | 0.00 | 87 | 1014.6 |
| 20260905173158 | 20 | 270 | 0.0 | 6.4 | 0.00 | 0.00 | 0.00 | 89 | 1014.6 |
| 20260905172656 | 20 | 278 | 0.0 | 6.4 | 0.00 | 0.00 | 0.00 | 89 | 1014.9 |
| 20260905172156 | 20 | 286 | 0.0 | 6.4 | 0.00 | 0.00 | 0.00 | 89 | 1014.9 |
| 20260905171656 | 20 | 346 | 3.2 | 4.8 | 0.00 | 0.00 | 0.00 | 90 | 1014.9 |
| 20260905171155 | 19 | 255 | 0.0 | 8.0 | 0.00 | 0.00 | 0.00 | 91 | 1014.9 |
| 20260905170154 | 19 | 306 | 0.0 | 6.4 | 0.00 | 0.00 | 0.00 | 91 | 1014.9 |
| 20260905165156 | 19 | 340 | 1.6 | 11.3 | 0.00 | 0.00 | 0.00 | 92 | 1014.9 |
| 20260905164654 | 19 | 267 | 6.4 | 12.9 | 0.00 | 0.00 | 0.00 | 92 | 1014.6 |
| 20260905164153 | 18 | 270 | 4.8 | 12.9 | 0.00 | 0.00 | 0.00 | 92 | 1014.6 |
| 20260905163653 | 18 | 270 | 3.2 | 9.7 | 0.00 | 0.00 | 0.00 | 92 | 1014.3 |
| 20260905163155 | 19 | 289 | 4.8 | 6.4 | 0.00 | 0.00 | 0.00 | 92 | 1014.3 |
| 20260905162653 | 19 | 11 | 0.0 | 8.0 | 0.00 | 0.00 | 0.00 | 93 | 1014.6 |
| 20260905162154 | 18 | 344 | 3.2 | 8.0 | 0.00 | 0.00 | 0.00 | 92 | 1014.3 |
| 20260905161652 | 18 | 349 | 3.2 | 11.3 | 0.00 | 0.00 | 0.00 | 93 | 1014.6 |
| 20260905160153 | 18 | 102 | 0.0 | 8.0 | 0.00 | 0.00 | 0.00 | 93 | 1013.9 |
| 20260905155651 | 18 | 19 | 3.2 | 6.4 | 0.00 | 0.00 | 0.00 | 93 | 1013.9 |
| 20260905155151 | 18 | 270 | 3.2 | 6.4 | 0.00 | 0.00 | 0.00 | 92 | 1014.3 |
| 20260905154651 | 18 | 139 | 3.2 | 6.4 | 0.00 | 0.00 | 0.00 | 92 | 1013.9 |
| 20260905153151 | 18 | 340 | 0.0 | 14.5 | 0.00 | 0.00 | 0.00 | 92 | 1014.3 |
| 20260905152649 | 18 | 287 | 4.8 | 14.5 | 0.00 | 0.00 | 0.00 | 92 | 1013.5 |
| 20260905152150 | 18 | 244 | 4.8 | 9.7 | 0.00 | 0.00 | 0.00 | 90 | 1013.9 |
| 20260905150648 | 18 | 320 | 3.2 | 8.0 | 0.00 | 0.00 | 0.00 | 92 | 1013.9 |
| 20260905150149 | 18 | 352 | 0.0 | 4.8 | 0.00 | 0.00 | 0.00 | 92 | 1013.9 |
| 20260905145148 | 18 | 8 | 0.0 | 4.8 | 0.00 | 0.00 | 0.00 | 92 | 1014.3 |
| 20260905144647 | 18 | 286 | 0.0 | 9.7 | 0.00 | 0.00 | 0.00 | 92 | 1014.3 |
| 20260905144146 | 18 | 188 | 0.0 | 9.7 | 0.00 | 0.00 | 0.00 | 92 | 1013.9 |
| 20260905143646 | 18 | 275 | 0.0 | 9.7 | 0.00 | 0.00 | 0.00 | 92 | 1013.5 |
| 20260905143145 | 18 | 285 | 3.2 | 11.3 | 0.00 | 0.00 | 0.00 | 91 | 1013.9 |
| 20260905142645 | 18 | 324 | 3.2 | 11.3 | 0.00 | 0.00 | 0.00 | 91 | 1013.9 |
| 20260905142145 | 18 | 348 | 1.6 | 11.3 | 0.00 | 0.00 | 0.00 | 93 | 1013.9 |
| 20260905141146 | 18 | 325 | 1.6 | 11.3 | 0.00 | 0.00 | 0.00 | 93 | 1014.3 |
| 20260905140146 | 17 | 270 | 0.0 | 9.7 | 0.00 | 0.00 | 0.00 | 93 | 1014.3 |
| 20260905135643 | 17 | 338 | 0.0 | 8.0 | 0.00 | 0.00 | 0.00 | 93 | 1013.9 |
| 20260905134144 | 17 | 261 | 0.0 | 4.8 | 0.00 | 0.00 | 0.00 | 94 | 1014.3 |
| 20260905133642 | 17 | 345 | 0.0 | 4.8 | 0.00 | 0.00 | 0.00 | 94 | 1013.9 |
| 20260905133144 | 17 | 283 | 1.6 | 4.8 | 0.00 | 0.00 | 0.00 | 95 | 1013.9 |
| 20260905132641 | 17 | 300 | 0.0 | 4.8 | 0.00 | 0.00 | 0.00 | 95 | 1013.9 |
| 20260905132144 | 17 | 282 | 4.8 | 4.8 | 0.00 | 0.00 | 0.00 | 95 | 1013.9 |
| 20260905131641 | 17 | 283 | 1.6 | 4.8 | 0.00 | 0.00 | 0.00 | 96 | 1014.3 |
| 20260905131141 | 17 | 352 | 0.0 | 4.8 | 0.00 | 0.00 | 0.00 | 96 | 1013.9 |
| 20260905130641 | 17 | 0 | 0.0 | 4.8 | 0.00 | 0.00 | 0.00 | 96 | 1013.9 |
| 20260905130130 | 17 | 340 | 0.0 | 6.4 | 0.00 | 0.00 | 0.00 | 96 | 1013.5 |
| 20260905125629 | 17 | 266 | 3.2 | 6.4 | 0.00 | 0.00 | 0.00 | 96 | 1013.9 |
| 20260905125129 | 17 | 276 | 3.2 | 8.0 | 0.00 | 0.00 | 0.00 | 96 | 1014.3 |
| 20260905124630 | 17 | 270 | 0.0 | 8.0 | 0.00 | 0.00 | 0.00 | 96 | 1013.5 |
| 20260905123629 | 17 | 346 | 1.6 | 8.0 | 0.00 | 0.00 | 0.00 | 96 | 1013.9 |
| 20260905123130 | 17 | 287 | 0.0 | 8.0 | 0.00 | 0.00 | 0.00 | 96 | 1014.3 |
| 20260905122630 | 17 | 250 | 0.0 | 9.7 | 0.00 | 0.00 | 0.00 | 95 | 1014.3 |
| 20260905122129 | 17 | 280 | 6.4 | 9.7 | 0.00 | 0.00 | 0.00 | 95 | 1013.9 |
| 20260905121129 | 17 | 10 | 0.0 | 8.0 | 0.00 | 0.00 | 0.00 | 96 | 1013.9 |
| 20260905120628 | 17 | 286 | 0.0 | 8.0 | 0.00 | 0.00 | 0.00 | 96 | 1013.5 |
| 20260905120129 | 17 | 344 | 3.2 | 9.7 | 0.00 | 0.00 | 0.00 | 96 | 1013.5 |
| 20260905115631 | 17 | 276 | 3.2 | 9.7 | 0.00 | 0.00 | 0.00 | 96 | 1013.5 |
| 20260905115129 | 17 | 257 | 3.2 | 9.7 | 0.00 | 0.00 | 0.00 | 96 | 1013.2 |
| 20260905114629 | 17 | 294 | 3.2 | 9.7 | 0.00 | 0.00 | 0.00 | 96 | 1013.2 |
| 20260905114129 | 17 | 337 | 1.6 | 8.0 | 0.00 | 0.00 | 0.00 | 96 | 1012.8 |
| 20260905113629 | 17 | 270 | 4.8 | 9.7 | 0.00 | 0.00 | 0.00 | 96 | 1013.2 |
| 20260905113129 | 17 | 295 | 3.2 | 9.7 | 0.00 | 0.00 | 0.00 | 96 | 1013.2 |
| 20260905112629 | 17 | 282 | 3.2 | 9.7 | 0.00 | 0.00 | 0.00 | 96 | 1013.2 |
| 20260905111629 | 17 | 337 | 1.6 | 8.0 | 0.00 | 0.00 | 0.00 | 96 | 1012.8 |
| 20260905111128 | 17 | 301 | 4.8 | 9.7 | 0.00 | 0.00 | 0.00 | 96 | 1012.8 |
| 20260905110631 | 17 | 264 | 1.6 | 9.7 | 0.00 | 0.00 | 0.00 | 96 | 1012.5 |
| 20260905110129 | 17 | 352 | 0.0 | 6.4 | 0.00 | 0.00 | 0.00 | 96 | 1012.5 |
| 20260905105630 | 17 | 306 | 1.6 | 6.4 | 0.00 | 0.00 | 0.00 | 96 | 1012.5 |
| 20260905105129 | 17 | 289 | 1.6 | 9.7 | 0.00 | 0.00 | 0.00 | 96 | 1012.5 |
| 20260905104628 | 17 | 331 | 1.6 | 9.7 | 0.00 | 0.00 | 0.00 | 96 | 1012.1 |
| 20260905104129 | 17 | 307 | 3.2 | 4.8 | 0.00 | 0.00 | 0.00 | 96 | 1012.1 |
| 20260905103630 | 17 | 324 | 3.2 | 9.7 | 0.00 | 0.00 | 0.00 | 96 | 1012.1 |
| 20260905103129 | 17 | 295 | 3.2 | 9.7 | 0.00 | 0.00 | 0.00 | 96 | 1012.1 |
| 20260905102129 | 17 | 249 | 0.0 | 9.7 | 0.00 | 0.00 | 0.00 | 96 | 1011.8 |
| 20260905101628 | 17 | 288 | 8.0 | 9.7 | 0.00 | 0.00 | 0.00 | 96 | 1011.8 |
| 20260905101128 | 17 | 334 | 4.8 | 9.7 | 0.00 | 0.00 | 0.00 | 96 | 1011.8 |
| 20260905100631 | 17 | 283 | 0.0 | 11.3 | 0.00 | 0.00 | 0.00 | 96 | 1011.8 |
| 20260905100129 | 17 | 275 | 3.2 | 11.3 | 0.00 | 0.00 | 0.00 | 96 | 1011.8 |
| 20260905095629 | 17 | 294 | 1.6 | 6.4 | 0.00 | 0.00 | 0.00 | 96 | 1011.8 |
| 20260905095128 | 17 | 283 | 1.6 | 9.7 | 0.00 | 0.00 | 0.00 | 95 | 1012.1 |
| 20260905094628 | 17 | 263 | 0.0 | 9.7 | 0.00 | 0.00 | 0.00 | 95 | 1011.8 |
| 20260905094128 | 17 | 287 | 0.0 | 11.3 | 0.00 | 0.00 | 0.00 | 95 | 1012.1 |
| 20260905093629 | 17 | 256 | 6.4 | 11.3 | 0.00 | 0.00 | 0.00 | 95 | 1012.5 |
| 20260905093127 | 17 | 261 | 0.0 | 11.3 | 0.00 | 0.00 | 0.00 | 95 | 1012.1 |
| 20260905092629 | 17 | 270 | 3.2 | 8.0 | 0.00 | 0.00 | 0.00 | 95 | 1012.8 |
| 20260905092126 | 17 | 294 | 0.0 | 6.4 | 0.00 | 0.00 | 0.00 | 95 | 1012.5 |
| 20260905091626 | 17 | 278 | 3.2 | 6.4 | 0.00 | 0.00 | 0.00 | 95 | 1012.5 |
| 20260905091126 | 17 | 270 | 0.0 | 8.0 | 0.00 | 0.00 | 0.00 | 95 | 1012.8 |
| 20260905090628 | 17 | 0 | 0.0 | 9.7 | 0.00 | 0.00 | 0.00 | 95 | 1012.5 |
| 20260905085626 | 17 | 232 | 3.2 | 8.0 | 0.00 | 0.00 | 0.00 | 95 | 1012.5 |
| 20260905085125 | 17 | 270 | 3.2 | 4.8 | 0.00 | 0.00 | 0.00 | 95 | 1012.5 |
| 20260905084625 | 17 | 286 | 1.6 | 4.8 | 0.00 | 0.00 | 0.00 | 95 | 1012.5 |
| 20260905084124 | 17 | 334 | 0.0 | 6.4 | 0.00 | 0.00 | 0.00 | 95 | 1012.5 |
| 20260905083626 | 17 | 287 | 3.2 | 6.4 | 0.00 | 0.00 | 0.00 | 95 | 1012.5 |
| 20260905083124 | 18 | 331 | 1.6 | 8.0 | 0.00 | 0.00 | 0.00 | 95 | 1012.5 |
| 20260905082623 | 17 | 295 | 3.2 | 8.0 | 0.00 | 0.00 | 0.00 | 94 | 1012.5 |
| 20260905082123 | 18 | 294 | 3.2 | 6.4 | 0.00 | 0.00 | 0.00 | 94 | 1012.5 |
| 20260905081623 | 17 | 291 | 4.8 | 6.4 | 0.00 | 0.00 | 0.00 | 95 | 1012.5 |
| 20260905081123 | 18 | 352 | 0.0 | 4.8 | 0.00 | 0.00 | 0.00 | 95 | 1012.8 |
| 20260905080622 | 18 | 289 | 0.0 | 3.2 | 0.00 | 0.00 | 0.00 | 94 | 1012.8 |
| 20260905075622 | 18 | 353 | 0.0 | 3.2 | 0.00 | 0.00 | 0.00 | 94 | 1012.8 |
| 20260905075122 | 18 | 331 | 1.6 | 4.8 | 0.00 | 0.00 | 0.00 | 94 | 1012.8 |
| 20260905074622 | 18 | 0 | 0.0 | 6.4 | 0.00 | 0.00 | 0.00 | 94 | 1012.5 |
| 20260905074120 | 18 | 323 | 4.8 | 6.4 | 0.00 | 0.00 | 0.00 | 93 | 1012.8 |
| 20260905073621 | 18 | 261 | 0.0 | 9.7 | 0.00 | 0.00 | 0.00 | 93 | 1012.5 |
| 20260905073120 | 18 | 284 | 4.8 | 9.7 | 0.00 | 0.00 | 0.00 | 93 | 1012.8 |
| 20260905072619 | 18 | 294 | 4.8 | 9.7 | 0.00 | 0.00 | 0.00 | 93 | 1012.8 |
| 20260905072120 | 18 | 270 | 0.0 | 6.4 | 0.00 | 0.00 | 0.00 | 94 | 1012.8 |
| 20260905071621 | 18 | 321 | 0.0 | 6.4 | 0.00 | 0.00 | 0.00 | 94 | 1012.8 |
| 20260905071118 | 18 | 5 | 1.6 | 4.8 | 0.00 | 0.00 | 0.00 | 93 | 1012.5 |
| 20260905070619 | 18 | 255 | 0.0 | 8.0 | 0.00 | 0.00 | 0.00 | 93 | 1012.8 |
| 20260905065618 | 18 | 307 | 3.2 | 6.4 | 0.00 | 0.00 | 0.00 | 93 | 1012.8 |
| 20260905065118 | 18 | 255 | 6.4 | 8.0 | 0.00 | 0.00 | 0.00 | 93 | 1012.8 |
| 20260905064619 | 18 | 315 | 3.2 | 8.0 | 0.00 | 0.00 | 0.00 | 93 | 1012.8 |
| 20260905064117 | 18 | 355 | 3.2 | 8.0 | 0.00 | 0.00 | 0.00 | 93 | 1012.8 |
| 20260905062616 | 18 | 289 | 0.0 | 4.8 | 0.00 | 0.00 | 0.00 | 95 | 1013.2 |
| 20260905062117 | 18 | 345 | 0.0 | 4.8 | 0.00 | 0.00 | 0.00 | 96 | 1012.8 |
| 20260905061618 | 18 | 0 | 0.0 | 4.8 | 0.00 | 0.00 | 0.00 | 96 | 1012.8 |
| 20260905061116 | 18 | 275 | 3.2 | 3.2 | 0.00 | 0.00 | 0.00 | 96 | 1013.2 |
| 20260905060615 | 18 | 286 | 0.0 | 3.2 | 0.00 | 0.00 | 0.00 | 96 | 1013.2 |
| 20260905060116 | 18 | 279 | 0.0 | 4.8 | 0.00 | 0.00 | 0.00 | 95 | 1013.2 |
| 20260905055614 | 18 | 285 | 4.8 | 4.8 | 0.00 | 0.00 | 0.00 | 95 | 1012.8 |
| 20260905054615 | 18 | 249 | 0.0 | 4.8 | 0.00 | 0.00 | 0.00 | 95 | 1013.2 |
| 20260905054113 | 18 | 295 | 0.0 | 4.8 | 0.00 | 0.00 | 0.00 | 95 | 1012.8 |
| 20260905053115 | 18 | 263 | 0.0 | 3.2 | 0.00 | 0.00 | 0.00 | 95 | 1012.8 |
| 20260905052613 | 18 | 270 | 0.0 | 3.2 | 0.00 | 0.00 | 0.00 | 95 | 1013.2 |
| 20260905052112 | 18 | 270 | 0.0 | 3.2 | 0.00 | 0.00 | 0.00 | 95 | 1012.8 |
| 20260905051112 | 18 | 257 | 0.0 | 3.2 | 0.00 | 0.00 | 0.00 | 94 | 1013.2 |
| 20260905050611 | 18 | 350 | 0.0 | 4.8 | 0.00 | 0.00 | 0.00 | 94 | 1012.8 |
| 20260905050112 | 18 | 0 | 0.0 | 4.8 | 0.00 | 0.00 | 0.00 | 94 | 1013.2 |
| 20260905045611 | 18 | 254 | 0.0 | 4.8 | 0.00 | 0.00 | 0.00 | 95 | 1013.2 |
| 20260905045111 | 18 | 246 | 0.0 | 3.2 | 0.00 | 0.00 | 0.00 | 94 | 1013.2 |
| 20260905044110 | 18 | 245 | 0.0 | 6.4 | 0.00 | 0.00 | 0.00 | 94 | 1013.2 |
| 20260905043609 | 18 | 334 | 3.2 | 8.0 | 0.00 | 0.00 | 0.00 | 95 | 1012.8 |
| 20260905043111 | 18 | 236 | 3.2 | 8.0 | 0.00 | 0.00 | 0.00 | 95 | 1013.2 |
| 20260905042609 | 18 | 0 | 1.6 | 4.8 | 0.00 | 0.00 | 0.00 | 95 | 1012.8 |
| 20260905042108 | 18 | 263 | 0.0 | 6.4 | 0.00 | 0.00 | 0.00 | 95 | 1012.8 |
| 20260905041610 | 18 | 308 | 3.2 | 6.4 | 0.00 | 0.00 | 0.00 | 94 | 1012.8 |
| 20260905041109 | 18 | 0 | 0.0 | 8.0 | 0.00 | 0.00 | 0.00 | 94 | 1012.8 |
| 20260905040607 | 18 | 270 | 3.2 | 8.0 | 0.00 | 0.03 | 0.00 | 94 | 1012.8 |
| 20260905040109 | 18 | 0 | 0.0 | 8.0 | 0.00 | 0.03 | 0.00 | 94 | 1012.8 |
| 20260905035607 | 18 | 311 | 4.8 | 8.0 | 0.00 | 0.03 | 0.00 | 94 | 1013.2 |
| 20260905034608 | 18 | 337 | 0.0 | 9.7 | 0.00 | 0.03 | 0.00 | 94 | 1013.2 |
| 20260905034106 | 18 | 247 | 3.2 | 9.7 | 0.00 | 0.03 | 0.00 | 94 | 1013.2 |
| 20260905033607 | 18 | 257 | 1.6 | 9.7 | 0.00 | 0.03 | 0.00 | 94 | 1012.8 |
| 20260905033105 | 18 | 279 | 3.2 | 9.7 | 0.00 | 0.03 | 0.00 | 94 | 1013.2 |
| 20260905032605 | 18 | 300 | 1.6 | 8.0 | 0.00 | 0.03 | 0.00 | 94 | 1013.2 |
| 20260905031605 | 18 | 259 | 4.8 | 6.4 | 0.00 | 0.18 | 0.00 | 95 | 1013.2 |
| 20260905031105 | 18 | 282 | 3.2 | 6.4 | 0.00 | 0.38 | 0.00 | 96 | 1013.2 |
| 20260905030606 | 18 | 7 | 0.0 | 4.8 | 0.00 | 0.84 | 0.00 | 97 | 1013.2 |
| 20260905025103 | 17 | 279 | 0.0 | 4.8 | 0.00 | 1.22 | 0.00 | 98 | 1012.8 |
| 20260905023602 | 17 | 270 | 0.0 | 0.0 | 0.00 | 1.22 | 0.00 | 99 | 1012.8 |
| 20260905023101 | 17 | 270 | 0.0 | 0.0 | 0.00 | 1.22 | 0.00 | 98 | 1012.8 |
| 20260905022101 | 17 | 270 | 0.0 | 0.0 | 0.00 | 1.22 | 0.00 | 98 | 1012.5 |
| 20260905021601 | 17 | 270 | 0.0 | 0.0 | 0.00 | 1.22 | 0.00 | 98 | 1012.8 |
| 20260905021101 | 17 | 270 | 0.0 | 0.0 | 0.00 | 1.22 | 0.00 | 98 | 1012.8 |
| 20260905020601 | 17 | 270 | 0.0 | 0.0 | 0.00 | 1.22 | 0.00 | 97 | 1012.5 |
| 20260905020100 | 17 | 270 | 0.0 | 1.6 | 0.00 | 1.22 | 0.00 | 97 | 1012.5 |
| 20260905015600 | 17 | 294 | 0.0 | 4.8 | 0.00 | 1.22 | 0.00 | 97 | 1012.8 |
| 20260905014559 | 18 | 261 | 0.0 | 3.2 | 0.00 | 1.22 | 0.00 | 97 | 1012.1 |
| 20260905014058 | 18 | 277 | 0.0 | 3.2 | 0.00 | 1.22 | 0.00 | 97 | 1012.1 |
| 20260905013559 | 18 | 261 | 0.0 | 4.8 | 0.00 | 1.22 | 0.00 | 96 | 1012.1 |
| 20260905013058 | 18 | 278 | 0.0 | 6.4 | 0.00 | 1.22 | 0.00 | 96 | 1012.1 |
| 20260905012557 | 18 | 300 | 0.0 | 6.4 | 0.00 | 1.22 | 0.00 | 96 | 1012.1 |
| 20260905012058 | 18 | 270 | 1.6 | 4.8 | 0.00 | 1.22 | 0.00 | 96 | 1012.1 |
| 20260905011557 | 18 | 0 | 0.0 | 4.8 | 0.00 | 1.22 | 0.00 | 95 | 1012.1 |
| 20260905011057 | 18 | 270 | 3.2 | 4.8 | 0.00 | 1.22 | 0.00 | 95 | 1012.1 |
| 20260905010557 | 18 | 261 | 0.0 | 3.2 | 0.00 | 1.22 | 0.00 | 94 | 1012.1 |
| 20260905010058 | 18 | 262 | 1.6 | 6.4 | 0.00 | 1.22 | 0.00 | 94 | 1012.1 |
| 20260905005056 | 19 | 278 | 1.6 | 6.4 | 0.00 | 1.22 | 0.00 | 93 | 1012.1 |
| 20260905004555 | 19 | 297 | 0.0 | 6.4 | 0.00 | 1.22 | 0.00 | 92 | 1012.5 |
| 20260905004055 | 19 | 0 | 0.0 | 3.2 | 0.00 | 1.22 | 0.00 | 92 | 1012.1 |
| 20260905003054 | 20 | 340 | 0.0 | 6.4 | 0.00 | 1.22 | 0.00 | 91 | 1012.1 |
| 20260905002554 | 20 | 334 | 3.2 | 8.0 | 0.00 | 1.22 | 0.00 | 91 | 1011.8 |
| 20260905002054 | 20 | 292 | 3.2 | 8.0 | 0.00 | 1.22 | 0.00 | 90 | 1011.8 |
| 20260905001553 | 20 | 300 | 0.0 | 6.4 | 0.00 | 1.22 | 0.00 | 90 | 1012.1 |
| 20260905001053 | 20 | 262 | 1.6 | 6.4 | 0.00 | 1.22 | 0.00 | 89 | 1011.8 |
| 20260905000053 | 21 | 301 | 3.2 | 8.0 | 0.00 | 1.22 | 0.00 | 88 | 1011.8 |
| 20260904235552 | 21 | 311 | 4.8 | 8.0 | 0.00 | 1.22 | 0.00 | 87 | 1011.8 |
| 20260904235052 | 21 | 306 | 0.0 | 9.7 | 0.00 | 1.22 | 0.00 | 87 | 1011.8 |
| 20260904234552 | 21 | 331 | 3.2 | 9.7 | 0.00 | 1.22 | 0.00 | 86 | 1011.8 |
| 20260904234051 | 22 | 276 | 0.0 | 6.4 | 0.00 | 1.22 | 0.00 | 84 | 1011.8 |
| 20260904233551 | 22 | 297 | 3.2 | 6.4 | 0.00 | 1.22 | 0.00 | 84 | 1011.8 |
| 20260904233051 | 22 | 341 | 3.2 | 4.8 | 0.00 | 1.22 | 0.00 | 83 | 1011.8 |
| 20260904232552 | 22 | 337 | 0.0 | 4.8 | 0.00 | 1.22 | 0.00 | 84 | 1011.8 |
| 20260904232050 | 23 | 262 | 0.0 | 4.8 | 0.00 | 1.22 | 0.00 | 83 | 1011.8 |
| 20260904231050 | 23 | 254 | 1.6 | 9.7 | 0.00 | 1.22 | 0.00 | 82 | 1011.5 |
| 20260904230049 | 23 | 279 | 0.0 | 4.8 | 0.00 | 1.22 | 0.00 | 80 | 1011.5 |
| 20260904225550 | 23 | 307 | 3.2 | 9.7 | 0.00 | 1.22 | 0.00 | 80 | 1011.5 |
| 20260904225048 | 23 | 332 | 3.2 | 9.7 | 0.00 | 1.22 | 0.00 | 79 | 1011.5 |
| 20260904224550 | 23 | 270 | 1.6 | 8.0 | 0.00 | 1.24 | 0.00 | 79 | 1011.0 |
| 20260904224049 | 24 | 292 | 4.8 | 6.4 | 0.00 | 1.24 | 0.00 | 77 | 1011.5 |
| 20260904223549 | 24 | 282 | 0.0 | 6.4 | 0.00 | 1.24 | 0.00 | 78 | 1011.5 |
| 20260904223047 | 24 | 306 | 1.6 | 6.4 | 0.00 | 1.24 | 0.00 | 78 | 1011.0 |
| 20260904222548 | 25 | 274 | 4.8 | 6.4 | 0.00 | 1.27 | 0.00 | 77 | 1011.0 |
| 20260904222046 | 25 | 254 | 1.6 | 8.0 | 0.00 | 1.32 | 0.00 | 77 | 1011.0 |
| 20260904221046 | 25 | 212 | 0.0 | 6.4 | 0.00 | 1.55 | 0.00 | 77 | 1011.0 |
| 20260904220046 | 25 | 257 | 1.6 | 6.4 | 0.00 | 1.57 | 0.00 | 77 | 1011.0 |
| 20260904215547 | 24 | 312 | 3.2 | 6.4 | 0.00 | 1.65 | 0.00 | 78 | 1011.0 |
| 20260904215045 | 25 | 262 | 0.0 | 6.4 | 0.00 | 1.88 | 0.00 | 76 | 1011.0 |
| 20260904214545 | 25 | 264 | 3.2 | 6.4 | 0.00 | 2.74 | 0.00 | 76 | 1011.0 |
| 20260904214045 | 25 | 251 | 1.6 | 4.8 | 0.00 | 3.20 | 0.00 | 77 | 1011.0 |
| 20260904213546 | 25 | 315 | 3.2 | 8.0 | 0.00 | 3.20 | 0.00 | 77 | 1010.7 |
| 20260904212545 | 25 | 270 | 4.8 | 8.0 | 0.00 | 3.20 | 0.00 | 77 | 1010.7 |
| 20260904212044 | 25 | 355 | 0.0 | 8.0 | 0.00 | 3.20 | 0.00 | 76 | 1011.0 |
| 20260904211544 | 25 | 319 | 3.2 | 9.7 | 0.00 | 3.20 | 0.00 | 77 | 1011.0 |
| 20260904211042 | 25 | 261 | 0.0 | 9.7 | 0.00 | 3.20 | 0.00 | 78 | 1011.0 |
| 20260904210544 | 24 | 292 | 3.2 | 8.0 | 0.00 | 3.20 | 0.00 | 76 | 1011.0 |
| 20260904210042 | 25 | 243 | 1.6 | 6.4 | 0.00 | 3.20 | 0.00 | 75 | 1011.0 |
| 20260904205543 | 26 | 300 | 3.2 | 6.4 | 0.00 | 3.20 | 0.00 | 76 | 1011.0 |
| 20260904205041 | 25 | 243 | 1.6 | 6.4 | 0.00 | 3.20 | 0.00 | 75 | 1011.0 |
| 20260904203542 | 25 | 206 | 0.0 | 6.4 | 0.00 | 3.20 | 0.00 | 74 | 1011.5 |
| 20260904203040 | 25 | 286 | 3.2 | 6.4 | 0.00 | 3.20 | 0.00 | 74 | 1011.0 |
| 20260904202039 | 25 | 315 | 3.2 | 8.0 | 0.00 | 3.20 | 0.00 | 75 | 1011.0 |
| 20260904201541 | 24 | 243 | 3.2 | 8.0 | 0.00 | 3.20 | 0.00 | 76 | 1011.0 |
| 20260904201039 | 25 | 270 | 0.0 | 8.0 | 0.00 | 3.20 | 0.00 | 77 | 1011.0 |
| 20260904200538 | 24 | 289 | 0.0 | 6.4 | 0.00 | 3.20 | 0.00 | 77 | 1011.0 |
| 20260904200038 | 24 | 225 | 3.2 | 8.0 | 0.00 | 3.20 | 0.00 | 78 | 1011.5 |
| 20260904195540 | 24 | 236 | 3.2 | 8.0 | 0.00 | 3.20 | 0.00 | 80 | 1011.5 |
| 20260904195038 | 23 | 276 | 1.6 | 6.4 | 0.00 | 3.20 | 0.00 | 79 | 1011.5 |
| 20260904194537 | 23 | 264 | 1.6 | 8.0 | 0.00 | 3.20 | 0.00 | 79 | 1011.5 |
| 20260904194037 | 24 | 255 | 1.6 | 8.0 | 0.00 | 3.20 | 0.00 | 78 | 1011.5 |
| 20260904193538 | 23 | 0 | 1.6 | 8.0 | 0.00 | 3.20 | 0.00 | 80 | 1011.0 |
| 20260904193036 | 23 | 270 | 1.6 | 8.0 | 0.00 | 3.20 | 0.00 | 79 | 1011.5 |
| 20260904192537 | 23 | 217 | 3.2 | 8.0 | 0.00 | 3.20 | 0.00 | 79 | 1011.5 |
| 20260904191536 | 23 | 294 | 4.8 | 8.0 | 0.00 | 3.20 | 0.00 | 79 | 1011.5 |